Time,TemperatureF,DewpointF,PressureIn,WindDirection,WindDirectionDegrees,WindSpeedMPH,WindSpeedGustMPH,Humidity,HourlyPrecipIn,Conditions,Clouds,dailyrainin,SolarRadiationWatts/m^2,SoftwareType,DateUTC
2013-07-29 00:05:00,64.0,59.1,29.92,SW,234,1.0,1.0,84,0.00,,,0.00,0,Wunderground v.1.15,2013-07-29 07:05:00,
2013-07-29 00:10:00,64.2,58.9,29.92,SW,234,0.0,0.0,83,0.00,,,0.00,0,Wunderground v.1.15,2013-07-29 07:10:00,
2013-07-29 00:16:00,64.3,59.0,29.92,SW,222,0.0,1.0,83,0.00,,,0.00,0,Wunderground v.1.15,2013-07-29 07:16:00,
2013-07-29 00:21:00,64.1,58.8,29.92,SW,222,0.0,0.0,83,0.00,,,0.00,0,Wunderground v.1.15,2013-07-29 07:21:00,
2013-07-29 00:27:00,64.3,59.0,29.91,SW,222,0.0,0.0,83,0.00,,,0.00,0,Wunderground v.1.15,2013-07-29 07:27:00,
2013-07-29 00:32:00,64.1,58.8,29.92,WSW,247,0.0,0.0,83,0.00,,,0.00,0,Wunderground v.1.15,2013-07-29 07:32:00,
2013-07-29 00:38:00,64.0,58.7,29.92,WNW,282,1.0,2.0,83,0.00,,,0.00,0,Wunderground v.1.15,2013-07-29 07:38:00,
2013-07-29 00:44:00,63.7,58.8,29.91,West,265,1.0,3.0,84,0.00,,,0.00,0,Wunderground v.1.15,2013-07-29 07:44:00,
2013-07-29 00:49:00,63.8,58.9,29.91,West,269,1.0,1.0,84,0.00,,,0.00,0,Wunderground v.1.15,2013-07-29 07:49:00,
2013-07-29 00:54:00,63.8,58.9,29.91,West,276,0.0,1.0,84,0.00,,,0.00,0,Wunderground v.1.15,2013-07-29 07:54:00,
2013-07-29 00:59:00,63.6,58.7,29.91,NW,304,0.0,0.0,84,0.00,,,0.00,0,Wunderground v.1.15,2013-07-29 07:59:00,
2013-07-29 01:05:00,63.6,58.7,29.91,WNW,300,0.0,2.0,84,0.00,,,0.00,0,Wunderground v.1.15,2013-07-29 08:05:00,
2013-07-29 01:10:00,63.6,58.7,29.91,NW,304,0.0,0.0,84,0.00,,,0.00,0,Wunderground v.1.15,2013-07-29 08:10:00,
2013-07-29 01:16:00,63.7,58.8,29.91,SW,231,0.0,2.0,84,0.00,,,0.00,0,Wunderground v.1.15,2013-07-29 08:16:00,
2013-07-29 01:21:00,63.9,59.0,29.91,SW,235,1.0,4.0,84,0.00,,,0.00,0,Wunderground v.1.15,2013-07-29 08:21:00,
2013-07-29 01:27:00,63.9,59.0,29.91,WSW,238,2.0,4.0,84,0.00,,,0.00,0,Wunderground v.1.15,2013-07-29 08:27:00,
2013-07-29 01:32:00,63.9,59.0,29.91,SE,133,1.0,2.0,84,0.00,,,0.00,0,Wunderground v.1.15,2013-07-29 08:32:00,
2013-07-29 01:38:00,63.9,59.0,29.91,West,261,0.0,2.0,84,0.00,,,0.00,0,Wunderground v.1.15,2013-07-29 08:38:00,
2013-07-29 01:44:00,63.6,58.7,29.91,NW,317,1.0,2.0,84,0.00,,,0.00,0,Wunderground v.1.15,2013-07-29 08:44:00,
2013-07-29 01:50:00,63.7,58.8,29.91,NW,311,1.0,1.0,84,0.00,,,0.00,0,Wunderground v.1.15,2013-07-29 08:50:00,
2013-07-29 01:55:00,63.6,58.7,29.91,NW,323,0.0,2.0,84,0.00,,,0.00,0,Wunderground v.1.15,2013-07-29 08:55:00,
2013-07-29 02:01:00,63.6,58.7,29.91,North,5,0.0,1.0,84,0.00,,,0.00,0,Wunderground v.1.15,2013-07-29 09:01:00,
2013-07-29 02:07:00,63.6,58.7,29.91,NNW,329,0.0,1.0,84,0.00,,,0.00,0,Wunderground v.1.15,2013-07-29 09:07:00,
2013-07-29 02:12:00,63.6,58.7,29.91,NNW,329,0.0,1.0,84,0.00,,,0.00,0,Wunderground v.1.15,2013-07-29 09:12:00,
2013-07-29 02:17:00,63.7,58.8,29.91,WNW,287,0.0,1.0,84,0.00,,,0.00,0,Wunderground v.1.15,2013-07-29 09:17:00,
2013-07-29 02:23:00,64.0,59.1,29.91,WSW,254,0.0,2.0,84,0.00,,,0.00,0,Wunderground v.1.15,2013-07-29 09:23:00,
2013-07-29 02:28:00,64.1,58.8,29.91,WSW,238,0.0,2.0,83,0.00,,,0.00,0,Wunderground v.1.15,2013-07-29 09:28:00,
2013-07-29 02:34:00,64.3,59.0,29.91,WSW,238,0.0,0.0,83,0.00,,,0.00,0,Wunderground v.1.15,2013-07-29 09:34:00,
2013-07-29 02:40:00,64.3,59.0,29.91,WSW,239,0.0,0.0,83,0.00,,,0.00,0,Wunderground v.1.15,2013-07-29 09:40:00,
2013-07-29 02:47:00,64.1,58.8,29.91,West,270,0.0,2.0,83,0.00,,,0.00,0,Wunderground v.1.15,2013-07-29 09:47:00,
2013-07-29 02:52:00,63.9,59.0,29.91,West,270,1.0,2.0,84,0.00,,,0.00,0,Wunderground v.1.15,2013-07-29 09:52:00,
2013-07-29 02:58:00,63.8,58.9,29.91,WNW,288,1.0,2.0,84,0.00,,,0.00,0,Wunderground v.1.15,2013-07-29 09:58:00,
2013-07-29 03:05:00,63.8,58.9,29.91,WNW,291,0.0,1.0,84,0.00,,,0.00,0,Wunderground v.1.15,2013-07-29 10:05:00,
2013-07-29 03:10:00,64.0,59.1,29.91,WNW,291,0.0,0.0,84,0.00,,,0.00,0,Wunderground v.1.15,2013-07-29 10:10:00,
2013-07-29 03:17:00,64.1,58.8,29.91,SSW,202,1.0,3.0,83,0.00,,,0.00,0,Wunderground v.1.15,2013-07-29 10:17:00,
2013-07-29 03:22:00,64.0,58.7,29.91,SSW,204,1.0,1.0,83,0.00,,,0.00,0,Wunderground v.1.15,2013-07-29 10:22:00,
2013-07-29 03:28:00,64.2,58.9,29.91,SW,221,0.0,1.0,83,0.00,,,0.00,0,Wunderground v.1.15,2013-07-29 10:28:00,
2013-07-29 03:33:00,64.1,58.8,29.91,WSW,238,0.0,0.0,83,0.00,,,0.00,0,Wunderground v.1.15,2013-07-29 10:33:00,
2013-07-29 03:39:00,64.0,58.7,29.91,West,275,0.0,0.0,83,0.00,,,0.00,0,Wunderground v.1.15,2013-07-29 10:39:00,
2013-07-29 03:44:00,64.1,58.8,29.91,WSW,249,1.0,1.0,83,0.00,,,0.00,0,Wunderground v.1.15,2013-07-29 10:44:00,
2013-07-29 03:50:00,64.1,58.8,29.91,South,180,0.0,2.0,83,0.00,,,0.00,0,Wunderground v.1.15,2013-07-29 10:50:00,
2013-07-29 03:55:00,64.1,58.5,29.91,West,272,0.0,2.0,82,0.00,,,0.00,0,Wunderground v.1.15,2013-07-29 10:55:00,
2013-07-29 04:02:00,64.1,58.5,29.92,WSW,252,0.0,1.0,82,0.00,,,0.00,0,Wunderground v.1.15,2013-07-29 11:02:00,
2013-07-29 04:07:00,64.0,58.4,29.92,South,178,1.0,4.0,82,0.00,,,0.00,0,Wunderground v.1.15,2013-07-29 11:07:00,
2013-07-29 04:13:00,64.1,58.5,29.92,SW,221,2.0,2.0,82,0.00,,,0.00,0,Wunderground v.1.15,2013-07-29 11:13:00,
2013-07-29 04:18:00,64.2,58.6,29.92,South,173,1.0,2.0,82,0.00,,,0.00,0,Wunderground v.1.15,2013-07-29 11:18:00,
2013-07-29 04:23:00,64.0,58.4,29.92,SE,144,1.0,2.0,82,0.00,,,0.00,0,Wunderground v.1.15,2013-07-29 11:23:00,
2013-07-29 04:29:00,64.0,58.4,29.92,SSW,193,1.0,1.0,82,0.00,,,0.00,0,Wunderground v.1.15,2013-07-29 11:29:00,
2013-07-29 04:35:00,63.9,58.3,29.92,SSW,212,1.0,4.0,82,0.00,,,0.00,0,Wunderground v.1.15,2013-07-29 11:35:00,
2013-07-29 04:40:00,63.8,58.2,29.92,South,188,2.0,4.0,82,0.00,,,0.00,0,Wunderground v.1.15,2013-07-29 11:40:00,
2013-07-29 04:46:00,63.8,58.2,29.92,SW,223,2.0,4.0,82,0.00,,,0.00,0,Wunderground v.1.15,2013-07-29 11:46:00,
2013-07-29 04:52:00,63.9,58.0,29.92,SW,233,2.0,3.0,81,0.00,,,0.00,0,Wunderground v.1.15,2013-07-29 11:52:00,
2013-07-29 04:57:00,63.9,58.0,29.92,SSW,212,2.0,3.0,81,0.00,,,0.00,0,Wunderground v.1.15,2013-07-29 11:57:00,
2013-07-29 05:04:00,63.9,58.0,29.92,SW,219,1.0,2.0,81,0.00,,,0.00,0,Wunderground v.1.15,2013-07-29 12:04:00,
2013-07-29 05:10:00,63.7,57.8,29.92,SW,235,0.0,1.0,81,0.00,,,0.00,0,Wunderground v.1.15,2013-07-29 12:10:00,
2013-07-29 05:16:00,63.8,57.9,29.92,SW,236,0.0,2.0,81,0.00,,,0.00,0,Wunderground v.1.15,2013-07-29 12:16:00,
2013-07-29 05:22:00,63.7,57.8,29.92,SW,236,0.0,1.0,81,0.00,,,0.00,0,Wunderground v.1.15,2013-07-29 12:22:00,
2013-07-29 05:27:00,63.8,57.9,29.92,SW,236,0.0,1.0,81,0.00,,,0.00,0,Wunderground v.1.15,2013-07-29 12:27:00,
2013-07-29 05:33:00,63.9,58.0,29.92,SW,236,0.0,1.0,81,0.00,,,0.00,0,Wunderground v.1.15,2013-07-29 12:33:00,
2013-07-29 05:38:00,63.9,58.0,29.92,SW,236,0.0,1.0,81,0.00,,,0.00,0,Wunderground v.1.15,2013-07-29 12:38:00,
2013-07-29 05:44:00,63.8,57.9,29.93,SW,236,0.0,0.0,81,0.00,,,0.00,0,Wunderground v.1.15,2013-07-29 12:44:00,
2013-07-29 05:49:00,63.7,57.8,29.93,South,182,0.0,0.0,81,0.00,,,0.00,0,Wunderground v.1.15,2013-07-29 12:49:00,
2013-07-29 05:55:00,63.7,57.8,29.93,SSW,213,0.0,2.0,81,0.00,,,0.00,0,Wunderground v.1.15,2013-07-29 12:55:00,
2013-07-29 06:00:00,63.7,57.8,29.93,SSW,209,0.0,1.0,81,0.00,,,0.00,0,Wunderground v.1.15,2013-07-29 13:00:00,
2013-07-29 06:06:00,63.8,57.9,29.94,SW,216,0.0,1.0,81,0.00,,,0.00,0,Wunderground v.1.15,2013-07-29 13:06:00,
2013-07-29 06:12:00,63.6,57.7,29.94,South,178,1.0,2.0,81,0.00,,,0.00,5,Wunderground v.1.15,2013-07-29 13:12:00,
2013-07-29 06:18:00,63.6,57.7,29.94,SSE,163,1.0,2.0,81,0.00,,,0.00,7,Wunderground v.1.15,2013-07-29 13:18:00,
2013-07-29 06:23:00,63.6,58.0,29.94,SSE,163,0.0,0.0,82,0.00,,,0.00,11,Wunderground v.1.15,2013-07-29 13:23:00,
2013-07-29 06:29:00,63.7,57.8,29.94,SSE,164,0.0,0.0,81,0.00,,,0.00,16,Wunderground v.1.15,2013-07-29 13:29:00,
2013-07-29 06:34:00,64.0,58.1,29.94,SW,217,0.0,0.0,81,0.00,,,0.00,21,Wunderground v.1.15,2013-07-29 13:34:00,
2013-07-29 06:40:00,64.1,57.8,29.95,SW,217,0.0,0.0,80,0.00,,,0.00,26,Wunderground v.1.15,2013-07-29 13:40:00,
2013-07-29 06:45:00,64.0,57.7,29.95,SE,144,0.0,1.0,80,0.00,,,0.00,28,Wunderground v.1.15,2013-07-29 13:45:00,
2013-07-29 06:52:00,63.9,58.0,29.95,SE,144,0.0,0.0,81,0.00,,,0.00,37,Wunderground v.1.15,2013-07-29 13:52:00,
2013-07-29 06:57:00,64.1,57.8,29.94,SE,145,0.0,2.0,80,0.00,,,0.00,46,Wunderground v.1.15,2013-07-29 13:57:00,
2013-07-29 07:03:00,64.1,57.8,29.95,South,172,0.0,1.0,80,0.00,,,0.00,56,Wunderground v.1.15,2013-07-29 14:03:00,
2013-07-29 07:09:00,64.1,57.8,29.95,South,171,0.0,0.0,80,0.00,,,0.00,67,Wunderground v.1.15,2013-07-29 14:09:00,
2013-07-29 07:14:00,64.1,57.8,29.95,South,173,0.0,0.0,80,0.00,,,0.00,74,Wunderground v.1.15,2013-07-29 14:14:00,
2013-07-29 07:20:00,64.3,58.0,29.95,South,184,0.0,0.0,80,0.00,,,0.00,74,Wunderground v.1.15,2013-07-29 14:20:00,
2013-07-29 07:25:00,64.4,58.1,29.95,South,175,0.0,2.0,80,0.00,,,0.00,81,Wunderground v.1.15,2013-07-29 14:25:00,
2013-07-29 07:31:00,64.7,58.0,29.95,SSW,212,1.0,1.0,79,0.00,,,0.00,86,Wunderground v.1.15,2013-07-29 14:31:00,
2013-07-29 07:37:00,64.9,58.2,29.95,SSW,209,1.0,2.0,79,0.00,,,0.00,104,Wunderground v.1.15,2013-07-29 14:37:00,
2013-07-29 07:44:00,64.9,58.2,29.96,SSW,205,0.0,1.0,79,0.00,,,0.00,123,Wunderground v.1.15,2013-07-29 14:44:00,
2013-07-29 07:49:00,65.1,58.4,29.96,ENE,64,0.0,0.0,79,0.00,,,0.00,134,Wunderground v.1.15,2013-07-29 14:49:00,
2013-07-29 07:55:00,64.8,58.5,29.96,NW,321,0.0,1.0,80,0.00,,,0.00,137,Wunderground v.1.15,2013-07-29 14:55:00,
2013-07-29 08:01:00,65.3,58.6,29.96,SSW,211,0.0,0.0,79,0.00,,,0.00,141,Wunderground v.1.15,2013-07-29 15:01:00,
2013-07-29 08:07:00,65.5,58.8,29.96,SE,128,0.0,1.0,79,0.00,,,0.00,149,Wunderground v.1.15,2013-07-29 15:07:00,
2013-07-29 08:12:00,65.8,58.7,29.96,ESE,122,0.0,3.0,78,0.00,,,0.00,163,Wunderground v.1.15,2013-07-29 15:12:00,
2013-07-29 08:19:00,65.9,58.8,29.97,SE,146,1.0,4.0,78,0.00,,,0.00,176,Wunderground v.1.15,2013-07-29 15:19:00,
2013-07-29 08:25:00,65.8,58.7,29.97,SE,144,3.0,4.0,78,0.00,,,0.00,209,Wunderground v.1.15,2013-07-29 15:25:00,
2013-07-29 08:31:00,65.7,58.7,29.97,SSW,194,3.0,3.0,78,0.00,,,0.00,244,Wunderground v.1.15,2013-07-29 15:31:00,
2013-07-29 08:36:00,66.4,59.3,29.97,SSE,166,1.0,3.0,78,0.00,,,0.00,276,Wunderground v.1.15,2013-07-29 15:36:00,
2013-07-29 08:44:00,67.0,59.2,29.97,SE,133,1.0,2.0,76,0.00,,,0.00,346,Wunderground v.1.15,2013-07-29 15:44:00,
2013-07-29 08:51:00,67.4,59.2,29.97,SSE,153,1.0,4.0,75,0.00,,,0.00,527,Wunderground v.1.15,2013-07-29 15:51:00,
2013-07-29 08:57:00,67.4,59.2,29.97,SE,138,2.0,4.0,75,0.00,,,0.00,323,Wunderground v.1.15,2013-07-29 15:57:00,
2013-07-29 09:03:00,67.8,59.2,29.97,South,190,1.0,1.0,74,0.00,,,0.00,376,Wunderground v.1.15,2013-07-29 16:03:00,
2013-07-29 09:09:00,68.3,59.3,29.98,East,96,1.0,1.0,73,0.00,,,0.00,529,Wunderground v.1.15,2013-07-29 16:09:00,
2013-07-29 09:14:00,68.7,59.7,29.97,South,175,1.0,3.0,73,0.00,,,0.00,534,Wunderground v.1.15,2013-07-29 16:14:00,
2013-07-29 09:23:00,69.3,59.5,29.98,SW,225,2.0,6.0,71,0.00,,,0.00,568,Wunderground v.1.15,2013-07-29 16:23:00,
2013-07-29 09:29:00,69.3,59.5,29.98,SW,232,3.0,5.0,71,0.00,,,0.00,591,Wunderground v.1.15,2013-07-29 16:29:00,
2013-07-29 09:35:00,69.1,59.3,29.98,SW,217,2.0,6.0,71,0.00,,,0.00,605,Wunderground v.1.15,2013-07-29 16:35:00,
2013-07-29 09:41:00,69.6,59.8,29.98,WSW,251,2.0,3.0,71,0.00,,,0.00,628,Wunderground v.1.15,2013-07-29 16:41:00,
2013-07-29 09:48:00,70.2,59.6,29.98,West,271,2.0,4.0,69,0.00,,,0.00,643,Wunderground v.1.15,2013-07-29 16:48:00,
2013-07-29 09:57:00,70.5,59.4,29.98,SE,131,4.0,5.0,68,0.00,,,0.00,668,Wunderground v.1.15,2013-07-29 16:57:00,
2013-07-29 10:02:00,70.6,59.1,29.98,SW,230,3.0,4.0,67,0.00,,,0.00,687,Wunderground v.1.15,2013-07-29 17:02:00,
2013-07-29 10:07:00,71.3,59.8,29.98,SW,229,3.0,6.0,67,0.00,,,0.00,691,Wunderground v.1.15,2013-07-29 17:07:00,
2013-07-29 10:13:00,71.7,59.7,29.98,WNW,300,3.0,5.0,66,0.00,,,0.00,708,Wunderground v.1.15,2013-07-29 17:13:00,
2013-07-29 10:18:00,70.8,59.3,29.98,South,182,2.0,5.0,67,0.00,,,0.00,726,Wunderground v.1.15,2013-07-29 17:18:00,
2013-07-29 10:24:00,72.1,59.7,29.98,SSE,167,2.0,7.0,65,0.00,,,0.00,737,Wunderground v.1.15,2013-07-29 17:24:00,
2013-07-29 10:30:00,72.9,60.0,29.98,SSW,213,3.0,3.0,64,0.00,,,0.00,749,Wunderground v.1.15,2013-07-29 17:30:00,
2013-07-29 10:35:00,73.6,59.3,29.98,WSW,249,4.0,6.0,61,0.00,,,0.00,761,Wunderground v.1.15,2013-07-29 17:35:00,
2013-07-29 10:42:00,73.5,59.2,29.99,SSW,206,4.0,6.0,61,0.00,,,0.00,772,Wunderground v.1.15,2013-07-29 17:42:00,
2013-07-29 10:49:00,73.5,59.2,29.98,North,350,3.0,3.0,61,0.00,,,0.00,786,Wunderground v.1.15,2013-07-29 17:49:00,
2013-07-29 10:55:00,73.7,59.4,29.98,West,270,3.0,6.0,61,0.00,,,0.00,802,Wunderground v.1.15,2013-07-29 17:55:00,
2013-07-29 11:01:00,73.6,58.9,29.99,West,264,4.0,7.0,60,0.00,,,0.00,805,Wunderground v.1.15,2013-07-29 18:01:00,
2013-07-29 11:06:00,74.9,59.6,29.98,SW,230,4.0,7.0,59,0.00,,,0.00,819,Wunderground v.1.15,2013-07-29 18:06:00,
2013-07-29 11:12:00,74.4,59.1,29.98,SE,132,2.0,3.0,59,0.00,,,0.00,826,Wunderground v.1.15,2013-07-29 18:12:00,
2013-07-29 11:17:00,75.4,59.1,29.99,SSW,213,3.0,9.0,57,0.00,,,0.00,838,Wunderground v.1.15,2013-07-29 18:17:00,
2013-07-29 11:23:00,75.1,58.8,29.99,SSW,207,3.0,7.0,57,0.00,,,0.00,846,Wunderground v.1.15,2013-07-29 18:23:00,
2013-07-29 11:29:00,75.4,59.1,29.99,SSW,192,2.0,5.0,57,0.00,,,0.00,858,Wunderground v.1.15,2013-07-29 18:29:00,
2013-07-29 11:37:00,75.8,58.5,29.99,West,259,3.0,6.0,55,0.00,,,0.00,868,Wunderground v.1.15,2013-07-29 18:37:00,
2013-07-29 11:42:00,75.8,58.5,29.99,SSE,167,4.0,5.0,55,0.00,,,0.00,877,Wunderground v.1.15,2013-07-29 18:42:00,
2013-07-29 11:48:00,75.5,57.7,29.99,SW,235,4.0,9.0,54,0.00,,,0.00,881,Wunderground v.1.15,2013-07-29 18:48:00,
2013-07-29 11:55:00,76.7,57.2,29.98,SSW,197,4.0,8.0,51,0.00,,,0.00,888,Wunderground v.1.15,2013-07-29 18:55:00,
2013-07-29 12:01:00,77.2,57.7,29.98,SSW,213,4.0,7.0,51,0.00,,,0.00,893,Wunderground v.1.15,2013-07-29 19:01:00,
2013-07-29 12:06:00,77.5,57.9,29.99,SW,231,5.0,8.0,51,0.00,,,0.00,900,Wunderground v.1.15,2013-07-29 19:06:00,
2013-07-29 12:12:00,77.5,57.4,29.99,NNW,336,3.0,4.0,50,0.00,,,0.00,900,Wunderground v.1.15,2013-07-29 19:12:00,
2013-07-29 12:17:00,77.7,57.6,29.99,West,259,3.0,6.0,50,0.00,,,0.00,907,Wunderground v.1.15,2013-07-29 19:17:00,
2013-07-29 12:23:00,77.7,57.6,29.98,North,355,4.0,7.0,50,0.00,,,0.00,912,Wunderground v.1.15,2013-07-29 19:23:00,
2013-07-29 12:28:00,77.9,57.8,29.99,SSW,205,5.0,7.0,50,0.00,,,0.00,914,Wunderground v.1.15,2013-07-29 19:28:00,
2013-07-29 12:34:00,78.7,58.5,29.99,SSE,163,4.0,7.0,50,0.00,,,0.00,918,Wunderground v.1.15,2013-07-29 19:34:00,
2013-07-29 12:39:00,78.5,58.3,29.99,WNW,296,4.0,8.0,50,0.00,,,0.00,919,Wunderground v.1.15,2013-07-29 19:39:00,
2013-07-29 12:45:00,78.2,58.6,29.98,WSW,249,5.0,8.0,51,0.00,,,0.00,918,Wunderground v.1.15,2013-07-29 19:45:00,
2013-07-29 12:50:00,78.0,58.4,29.98,SW,227,5.0,7.0,51,0.00,,,0.00,916,Wunderground v.1.15,2013-07-29 19:50:00,
2013-07-29 12:57:00,78.8,59.1,29.98,NW,306,5.0,8.0,51,0.00,,,0.00,916,Wunderground v.1.15,2013-07-29 19:57:00,
2013-07-29 13:03:00,78.6,58.4,29.98,SSW,211,5.0,8.0,50,0.00,,,0.00,918,Wunderground v.1.15,2013-07-29 20:03:00,
2013-07-29 13:08:00,78.9,58.7,29.98,SSW,192,5.0,8.0,50,0.00,,,0.00,918,Wunderground v.1.15,2013-07-29 20:08:00,
2013-07-29 13:14:00,78.7,58.5,29.98,SSE,161,5.0,9.0,50,0.00,,,0.00,919,Wunderground v.1.15,2013-07-29 20:14:00,
2013-07-29 13:19:00,79.3,58.5,29.98,SW,217,5.0,5.0,49,0.00,,,0.00,912,Wunderground v.1.15,2013-07-29 20:19:00,
2013-07-29 13:49:00,80.1,59.8,29.97,SW,224,3.0,7.0,50,0.00,,,0.00,886,Wunderground v.1.15,2013-07-29 20:49:00,
2013-07-29 13:55:00,79.4,59.1,29.97,West,274,4.0,7.0,50,0.00,,,0.00,884,Wunderground v.1.15,2013-07-29 20:55:00,
2013-07-29 14:00:00,78.9,59.2,29.97,West,279,6.0,6.0,51,0.00,,,0.00,879,Wunderground v.1.15,2013-07-29 21:00:00,
2013-07-29 14:05:00,80.0,59.7,29.97,South,185,5.0,6.0,50,0.00,,,0.00,872,Wunderground v.1.15,2013-07-29 21:05:00,
2013-07-29 14:11:00,79.6,59.9,29.97,NW,306,4.0,6.0,51,0.00,,,0.00,865,Wunderground v.1.15,2013-07-29 21:11:00,
2013-07-29 14:16:00,78.7,59.0,29.97,SW,228,5.0,9.0,51,0.00,,,0.00,860,Wunderground v.1.15,2013-07-29 21:16:00,
2013-07-29 14:22:00,79.2,59.5,29.97,SW,230,6.0,9.0,51,0.00,,,0.00,849,Wunderground v.1.15,2013-07-29 21:22:00,
2013-07-29 14:27:00,79.3,59.6,29.97,SW,233,5.0,9.0,51,0.00,,,0.00,842,Wunderground v.1.15,2013-07-29 21:27:00,
2013-07-29 14:33:00,79.3,59.6,29.97,NW,321,4.0,6.0,51,0.00,,,0.00,835,Wunderground v.1.15,2013-07-29 21:33:00,
2013-07-29 14:38:00,80.1,59.8,29.97,West,274,4.0,6.0,50,0.00,,,0.00,828,Wunderground v.1.15,2013-07-29 21:38:00,
2013-07-29 14:44:00,79.7,59.4,29.97,SSW,210,4.0,9.0,50,0.00,,,0.00,821,Wunderground v.1.15,2013-07-29 21:44:00,
2013-07-29 14:50:00,79.3,59.0,29.96,SW,232,3.0,6.0,50,0.00,,,0.00,810,Wunderground v.1.15,2013-07-29 21:50:00,
2013-07-29 14:55:00,79.7,59.4,29.96,South,169,4.0,9.0,50,0.00,,,0.00,798,Wunderground v.1.15,2013-07-29 21:55:00,
2013-07-29 15:02:00,80.2,59.3,29.96,WSW,248,4.0,9.0,49,0.00,,,0.00,784,Wunderground v.1.15,2013-07-29 22:02:00,
2013-07-29 15:07:00,80.2,59.3,29.96,South,184,5.0,10.0,49,0.00,,,0.00,775,Wunderground v.1.15,2013-07-29 22:07:00,
2013-07-29 15:13:00,78.6,59.0,29.96,West,262,6.0,8.0,51,0.00,,,0.00,758,Wunderground v.1.15,2013-07-29 22:13:00,
2013-07-29 15:19:00,79.7,59.4,29.96,NNW,348,6.0,6.0,50,0.00,,,0.00,745,Wunderground v.1.15,2013-07-29 22:19:00,
2013-07-29 15:25:00,79.4,59.7,29.96,South,175,5.0,10.0,51,0.00,,,0.00,733,Wunderground v.1.15,2013-07-29 22:25:00,
2013-07-29 15:31:00,79.8,60.1,29.96,SSW,202,5.0,7.0,51,0.00,,,0.00,721,Wunderground v.1.15,2013-07-29 22:31:00,
2013-07-29 15:36:00,80.1,59.8,29.95,WSW,248,4.0,7.0,50,0.00,,,0.00,708,Wunderground v.1.15,2013-07-29 22:36:00,
2013-07-29 15:42:00,79.9,59.6,29.95,WNW,292,3.0,7.0,50,0.00,,,0.00,694,Wunderground v.1.15,2013-07-29 22:42:00,
2013-07-29 15:47:00,80.0,59.7,29.95,West,279,4.0,9.0,50,0.00,,,0.00,680,Wunderground v.1.15,2013-07-29 22:47:00,
2013-07-29 15:53:00,80.1,59.8,29.95,WSW,238,4.0,9.0,50,0.00,,,0.00,668,Wunderground v.1.15,2013-07-29 22:53:00,
2013-07-29 15:59:00,80.4,60.1,29.95,WSW,243,4.0,8.0,50,0.00,,,0.00,650,Wunderground v.1.15,2013-07-29 22:59:00,
2013-07-29 16:06:00,79.3,59.0,29.95,West,266,4.0,9.0,50,0.00,,,0.00,631,Wunderground v.1.15,2013-07-29 23:06:00,
2013-07-29 16:12:00,79.7,59.4,29.95,SSW,194,4.0,7.0,50,0.00,,,0.00,615,Wunderground v.1.15,2013-07-29 23:12:00,
2013-07-29 16:18:00,79.7,59.4,29.95,SW,221,4.0,11.0,50,0.00,,,0.00,596,Wunderground v.1.15,2013-07-29 23:18:00,
2013-07-29 16:23:00,79.7,59.4,29.95,SSW,206,5.0,9.0,50,0.00,,,0.00,584,Wunderground v.1.15,2013-07-29 23:23:00,
2013-07-29 16:28:00,79.8,59.5,29.95,WSW,252,6.0,9.0,50,0.00,,,0.00,568,Wunderground v.1.15,2013-07-29 23:28:00,
2013-07-29 16:34:00,79.6,59.3,29.95,South,170,5.0,9.0,50,0.00,,,0.00,548,Wunderground v.1.15,2013-07-29 23:34:00,
2013-07-29 16:42:00,78.9,59.2,29.95,SSW,206,3.0,6.0,51,0.00,,,0.00,527,Wunderground v.1.15,2013-07-29 23:42:00,
2013-07-29 16:49:00,79.0,59.3,29.95,SSW,193,5.0,5.0,51,0.00,,,0.00,508,Wunderground v.1.15,2013-07-29 23:49:00,
2013-07-29 16:55:00,78.8,59.1,29.95,SW,227,5.0,10.0,51,0.00,,,0.00,489,Wunderground v.1.15,2013-07-29 23:55:00,
2013-07-29 17:00:00,78.7,59.6,29.95,WNW,282,4.0,4.0,52,0.00,,,0.00,473,Wunderground v.1.15,2013-07-30 00:00:00,
2013-07-29 17:06:00,78.5,59.4,29.95,WSW,254,5.0,7.0,52,0.00,,,0.00,457,Wunderground v.1.15,2013-07-30 00:06:00,
2013-07-29 17:11:00,78.6,59.5,29.95,SSW,197,5.0,5.0,52,0.00,,,0.00,439,Wunderground v.1.15,2013-07-30 00:11:00,
2013-07-29 17:16:00,77.3,59.4,29.95,WNW,286,5.0,6.0,54,0.00,,,0.00,424,Wunderground v.1.15,2013-07-30 00:16:00,
2013-07-29 17:22:00,77.6,59.6,29.95,SW,217,5.0,7.0,54,0.00,,,0.00,406,Wunderground v.1.15,2013-07-30 00:22:00,
2013-07-29 17:28:00,77.1,59.7,29.95,SW,228,6.0,10.0,55,0.00,,,0.00,388,Wunderground v.1.15,2013-07-30 00:28:00,
2013-07-29 17:34:00,77.0,59.6,29.94,SW,219,5.0,6.0,55,0.00,,,0.00,367,Wunderground v.1.15,2013-07-30 00:34:00,
2013-07-29 17:39:00,77.0,59.6,29.94,SW,232,5.0,5.0,55,0.00,,,0.00,352,Wunderground v.1.15,2013-07-30 00:39:00,
2013-07-29 17:46:00,77.4,60.0,29.94,SSW,195,4.0,5.0,55,0.00,,,0.00,330,Wunderground v.1.15,2013-07-30 00:46:00,
2013-07-29 17:51:00,76.4,59.0,29.94,SW,225,4.0,6.0,55,0.00,,,0.00,313,Wunderground v.1.15,2013-07-30 00:51:00,
2013-07-29 17:57:00,76.0,59.2,29.94,WSW,244,6.0,9.0,56,0.00,,,0.00,294,Wunderground v.1.15,2013-07-30 00:57:00,
2013-07-29 18:02:00,75.6,59.3,29.94,SW,233,5.0,7.0,57,0.00,,,0.00,278,Wunderground v.1.15,2013-07-30 01:02:00,
2013-07-29 18:08:00,75.5,59.2,29.94,SW,220,5.0,7.0,57,0.00,,,0.00,260,Wunderground v.1.15,2013-07-30 01:08:00,
2013-07-29 18:13:00,75.7,59.4,29.94,West,266,4.0,7.0,57,0.00,,,0.00,244,Wunderground v.1.15,2013-07-30 01:13:00,
2013-07-29 18:19:00,75.7,58.9,29.94,SW,215,5.0,5.0,56,0.00,,,0.00,223,Wunderground v.1.15,2013-07-30 01:19:00,
2013-07-29 18:24:00,75.3,59.0,29.94,South,186,4.0,6.0,57,0.00,,,0.00,204,Wunderground v.1.15,2013-07-30 01:24:00,
2013-07-29 18:30:00,75.0,59.2,29.94,West,262,4.0,5.0,58,0.00,,,0.00,185,Wunderground v.1.15,2013-07-30 01:30:00,
2013-07-29 18:35:00,74.9,59.6,29.94,SSW,200,4.0,5.0,59,0.00,,,0.00,165,Wunderground v.1.15,2013-07-30 01:35:00,
2013-07-29 18:41:00,75.1,59.3,29.94,SSW,211,3.0,6.0,58,0.00,,,0.00,144,Wunderground v.1.15,2013-07-30 01:41:00,
2013-07-29 18:46:00,74.8,59.5,29.94,SW,235,4.0,8.0,59,0.00,,,0.00,127,Wunderground v.1.15,2013-07-30 01:46:00,
2013-07-29 18:52:00,74.4,59.1,29.95,SSW,198,4.0,6.0,59,0.00,,,0.00,105,Wunderground v.1.15,2013-07-30 01:52:00,
2013-07-29 18:57:00,74.0,59.2,29.95,SW,227,4.0,11.0,60,0.00,,,0.00,90,Wunderground v.1.15,2013-07-30 01:57:00,
2013-07-29 19:03:00,73.7,58.9,29.95,SW,229,5.0,6.0,60,0.00,,,0.00,72,Wunderground v.1.15,2013-07-30 02:03:00,
2013-07-29 19:08:00,73.7,59.4,29.95,SSW,209,4.0,6.0,61,0.00,,,0.00,58,Wunderground v.1.15,2013-07-30 02:08:00,
2013-07-29 19:13:00,73.2,58.9,29.95,WSW,253,4.0,10.0,61,0.00,,,0.00,46,Wunderground v.1.15,2013-07-30 02:13:00,
2013-07-29 19:19:00,72.9,59.1,29.96,SW,217,4.0,4.0,62,0.00,,,0.00,28,Wunderground v.1.15,2013-07-30 02:19:00,
2013-07-29 19:24:00,72.3,58.5,29.96,South,180,4.0,8.0,62,0.00,,,0.00,19,Wunderground v.1.15,2013-07-30 02:24:00,
2013-07-29 19:30:00,71.5,58.7,29.95,WNW,291,4.0,5.0,64,0.00,,,0.00,16,Wunderground v.1.15,2013-07-30 02:30:00,
2013-07-29 19:35:00,71.1,58.7,29.96,SSW,211,4.0,7.0,65,0.00,,,0.00,14,Wunderground v.1.15,2013-07-30 02:35:00,
2013-07-29 19:42:00,70.7,58.8,29.96,ESE,113,3.0,5.0,66,0.00,,,0.00,11,Wunderground v.1.15,2013-07-30 02:42:00,
2013-07-29 19:47:00,70.3,58.4,29.96,SE,131,2.0,5.0,66,0.00,,,0.00,7,Wunderground v.1.15,2013-07-30 02:47:00,
2013-07-29 19:53:00,69.9,58.4,29.97,East,98,2.0,6.0,67,0.00,,,0.00,5,Wunderground v.1.15,2013-07-30 02:53:00,
2013-07-29 19:59:00,69.4,58.4,29.97,WSW,249,3.0,3.0,68,0.00,,,0.00,0,Wunderground v.1.15,2013-07-30 02:59:00,
2013-07-29 20:05:00,69.1,58.5,29.97,West,267,4.0,8.0,69,0.00,,,0.00,0,Wunderground v.1.15,2013-07-30 03:05:00,
2013-07-29 20:10:00,68.8,58.2,29.97,West,274,4.0,5.0,69,0.00,,,0.00,0,Wunderground v.1.15,2013-07-30 03:10:00,
2013-07-29 20:16:00,68.5,58.3,29.97,SE,127,4.0,5.0,70,0.00,,,0.00,0,Wunderground v.1.15,2013-07-30 03:16:00,
2013-07-29 20:22:00,68.3,58.1,29.98,WSW,243,2.0,3.0,70,0.00,,,0.00,0,Wunderground v.1.15,2013-07-30 03:22:00,
2013-07-29 20:27:00,68.3,58.1,29.98,West,270,1.0,3.0,70,0.00,,,0.00,0,Wunderground v.1.15,2013-07-30 03:27:00,
2013-07-29 20:32:00,68.1,58.3,29.98,SW,219,1.0,3.0,71,0.00,,,0.00,0,Wunderground v.1.15,2013-07-30 03:32:00,
2013-07-29 20:38:00,67.8,58.1,29.98,WNW,282,2.0,5.0,71,0.00,,,0.00,0,Wunderground v.1.15,2013-07-30 03:38:00,
2013-07-29 20:43:00,67.6,57.9,29.98,SW,222,1.0,2.0,71,0.00,,,0.00,0,Wunderground v.1.15,2013-07-30 03:43:00,
2013-07-29 20:49:00,67.5,58.2,29.99,SW,233,1.0,1.0,72,0.00,,,0.00,0,Wunderground v.1.15,2013-07-30 03:49:00,
2013-07-29 20:55:00,67.3,58.0,29.99,WSW,244,1.0,7.0,72,0.00,,,0.00,0,Wunderground v.1.15,2013-07-30 03:55:00,
2013-07-29 21:00:00,67.1,57.8,29.99,SE,142,1.0,2.0,72,0.00,,,0.00,0,Wunderground v.1.15,2013-07-30 04:00:00,
2013-07-29 21:01:00,67.0,57.7,29.99,ENE,70,1.0,2.0,72,0.00,,,0.00,0,Wunderground v.1.15,2013-07-30 04:01:00,
2013-07-29 21:02:00,66.9,58.0,29.99,ENE,70,1.0,2.0,73,0.00,,,0.00,0,Wunderground v.1.15,2013-07-30 04:02:00,
2013-07-29 21:03:00,66.9,58.0,29.99,ENE,70,1.0,2.0,73,0.00,,,0.00,0,Wunderground v.1.15,2013-07-30 04:03:00,
2013-07-29 21:04:00,66.8,57.9,29.99,ENE,70,1.0,2.0,73,0.00,,,0.00,0,Wunderground v.1.15,2013-07-30 04:04:00,
2013-07-29 21:09:00,66.9,58.0,30.00,SSW,197,0.0,3.0,73,0.00,,,0.00,0,Wunderground v.1.15,2013-07-30 04:09:00,
2013-07-29 21:10:00,66.8,57.9,30.00,South,189,1.0,3.0,73,0.00,,,0.00,0,Wunderground v.1.15,2013-07-30 04:10:00,
2013-07-29 21:16:00,66.5,58.0,30.00,South,185,2.0,6.0,74,0.00,,,0.00,0,Wunderground v.1.15,2013-07-30 04:16:00,
2013-07-29 21:21:00,66.4,58.2,30.00,SSE,159,2.0,2.0,75,0.00,,,0.00,0,Wunderground v.1.15,2013-07-30 04:21:00,
2013-07-29 21:27:00,66.5,58.0,30.00,SSW,196,1.0,2.0,74,0.00,,,0.00,0,Wunderground v.1.15,2013-07-30 04:27:00,
2013-07-29 21:32:00,66.5,58.0,30.01,SE,145,1.0,1.0,74,0.00,,,0.00,0,Wunderground v.1.15,2013-07-30 04:32:00,
2013-07-29 21:38:00,66.5,58.0,30.01,SSE,152,0.0,1.0,74,0.00,,,0.00,0,Wunderground v.1.15,2013-07-30 04:38:00,
2013-07-29 21:44:00,66.3,57.8,30.01,SE,142,1.0,4.0,74,0.00,,,0.00,0,Wunderground v.1.15,2013-07-30 04:44:00,
2013-07-29 21:49:00,66.3,57.8,30.01,WSW,246,1.0,1.0,74,0.00,,,0.00,0,Wunderground v.1.15,2013-07-30 04:49:00,
2013-07-29 21:54:00,66.1,57.9,30.01,West,262,0.0,1.0,75,0.00,,,0.00,0,Wunderground v.1.15,2013-07-30 04:54:00,
2013-07-29 21:59:00,65.9,57.4,30.01,SSE,158,0.0,0.0,74,0.00,,,0.00,0,Wunderground v.1.15,2013-07-30 04:59:00,
2013-07-29 22:04:00,65.9,57.7,30.01,SSE,158,0.0,0.0,75,0.00,,,0.00,0,Wunderground v.1.15,2013-07-30 05:04:00,
2013-07-29 22:10:00,66.1,57.6,30.01,SSE,159,0.0,1.0,74,0.00,,,0.00,0,Wunderground v.1.15,2013-07-30 05:10:00,
2013-07-29 22:15:00,65.6,57.1,30.02,SW,229,1.0,2.0,74,0.00,,,0.00,0,Wunderground v.1.15,2013-07-30 05:15:00,
2013-07-29 22:22:00,65.3,57.2,30.02,WSW,239,1.0,2.0,75,0.00,,,0.00,0,Wunderground v.1.15,2013-07-30 05:22:00,
2013-07-29 22:27:00,65.2,57.1,30.02,WSW,237,1.0,2.0,75,0.00,,,0.00,0,Wunderground v.1.15,2013-07-30 05:27:00,
2013-07-29 22:33:00,65.0,56.9,30.02,SW,225,1.0,2.0,75,0.00,,,0.00,0,Wunderground v.1.15,2013-07-30 05:33:00,
2013-07-29 22:38:00,65.0,56.9,30.02,SW,232,0.0,2.0,75,0.00,,,0.00,0,Wunderground v.1.15,2013-07-30 05:38:00,
2013-07-29 22:44:00,64.6,56.5,30.02,SW,232,0.0,0.0,75,0.00,,,0.00,0,Wunderground v.1.15,2013-07-30 05:44:00,
2013-07-29 22:49:00,64.2,56.5,30.02,SW,232,0.0,0.0,76,0.00,,,0.00,0,Wunderground v.1.15,2013-07-30 05:49:00,
2013-07-29 22:55:00,64.2,56.1,30.02,SW,232,0.0,1.0,75,0.00,,,0.00,0,Wunderground v.1.15,2013-07-30 05:55:00,
2013-07-29 23:01:00,63.9,55.8,30.02,SW,232,0.0,0.0,75,0.00,,,0.00,0,Wunderground v.1.15,2013-07-30 06:01:00,
2013-07-29 23:06:00,63.6,55.9,30.02,SW,232,0.0,0.0,76,0.00,,,0.00,0,Wunderground v.1.15,2013-07-30 06:06:00,
2013-07-29 23:12:00,63.3,55.2,30.02,SW,232,0.0,0.0,75,0.00,,,0.00,0,Wunderground v.1.15,2013-07-30 06:12:00,
2013-07-29 23:18:00,63.0,55.3,30.02,SW,232,0.0,0.0,76,0.00,,,0.00,0,Wunderground v.1.15,2013-07-30 06:18:00,
2013-07-29 23:23:00,62.7,55.0,30.02,SW,232,0.0,0.0,76,0.00,,,0.00,0,Wunderground v.1.15,2013-07-30 06:23:00,
2013-07-29 23:29:00,62.1,54.8,30.03,SW,232,0.0,0.0,77,0.00,,,0.00,0,Wunderground v.1.15,2013-07-30 06:29:00,
2013-07-29 23:34:00,62.0,54.3,30.02,SW,232,0.0,1.0,76,0.00,,,0.00,0,Wunderground v.1.15,2013-07-30 06:34:00,
2013-07-29 23:40:00,60.9,54.3,30.03,SE,142,0.0,0.0,79,0.00,,,0.00,0,Wunderground v.1.15,2013-07-30 06:40:00,
2013-07-29 23:45:00,61.3,54.7,30.03,SE,140,0.0,0.0,79,0.00,,,0.00,0,Wunderground v.1.15,2013-07-30 06:45:00,
2013-07-29 23:51:00,61.6,55.0,30.03,SE,140,0.0,0.0,79,0.00,,,0.00,0,Wunderground v.1.15,2013-07-30 06:51:00,
2013-07-29 23:57:00,61.4,54.5,30.03,SE,140,0.0,0.0,78,0.00,,,0.00,0,Wunderground v.1.15,2013-07-30 06:57:00,